Weather History for Siren, WI

Change the Weather History Date:

Monday, May 12, 2014

  Actual Average Record
Temperature  
Mean Temperature 46 °F -  
Max Temperature 50 °F - - ()
Min Temperature 38 °F - - ()
Degree Days  
Heating Degree Days 20    
Moisture  
Dew Point 46 °F    
Average Humidity 96    
Maximum Humidity 99    
Minimum Humidity 75    
Precipitation  
Precipitation 0.90 in - - ()
Sea Level Pressure  
Sea Level Pressure 29.76 in    
Wind  
Wind Speed 7 mph (NNE)    
Max Wind Speed 14 mph    
Max Gust Speed 17 mph    
Visibility 8 miles    
Events Rain    
T = Trace of Precipitation, MM = Missing Value Source: NWS Daily Summary

Daily Weather History Graph

Daily Weather History Graph

Search for Another Location

Airport:

Trip Planner

Search our weather history database for the weather conditions in past years. The results will help you decide how hot, cold, wet, or windy it might be!

Date:

Astronomy

May. 12, 2014 Rise Set
Actual Time 5:41 AM CDT 8:30 PM CDT
Civil Twilight 5:07 AM CDT 9:05 PM CDT
Nautical Twilight 4:23 AM CDT 9:49 PM CDT
Astronomical Twilight 3:31 AM CDT 10:41 PM CDT
Moon 6:22 PM CDT (5/12) 4:29 AM CDT (5/12)
Length of Visible Light 15h 58m
Length of Day
14h 49m
Waxing Gibbous, 95% of the Moon is Illuminated
May 12
Waxing Gibbous
May 14
Full
May 21
Last Quarter
May 28
New
Jun 5
First Quarter

Hourly Weather History & Observations

Time (CDT) Temp. Windchill Dew Point Humidity Pressure Visibility Wind Dir Wind Speed Gust Speed Precip Events Conditions
12:10 AM 53.4 °F - 45.7 °F 75% 29.86 in 10.0 mi North 5.8 mph - 0.01 in Rain Rain
12:30 AM 51.8 °F - 45.9 °F 80% 29.86 in 10.0 mi NE 4.6 mph - 0.04 in Rain Rain
12:50 AM 50.5 °F - 45.9 °F 84% 29.85 in 10.0 mi NE 8.1 mph - 0.08 in Rain Rain
1:10 AM 49.6 °F - 46.6 °F 89% 29.85 in 10.0 mi ENE 6.9 mph - 0.02 in Rain Rain
1:30 AM 49.1 °F - 46.8 °F 92% 29.83 in 7.0 mi ENE 10.4 mph 16.1 mph 0.06 in Rain Rain
1:50 AM 48.6 °F - 46.9 °F 94% 29.79 in 7.0 mi ENE 11.5 mph 17.3 mph 0.11 in Rain Rain
2:10 AM 48.6 °F - 47.3 °F 95% 29.78 in 7.0 mi ENE 9.2 mph - 0.03 in Rain Rain
2:30 AM 49.1 °F - 48.0 °F 96% 29.78 in 10.0 mi Calm Calm - 0.06 in Rain Light Rain
2:50 AM 49.5 °F - 48.4 °F 96% 29.78 in 7.0 mi East 5.8 mph - 0.10 in Rain Rain
3:10 AM 49.5 °F - 48.6 °F 97% 29.76 in 7.0 mi NE 6.9 mph - 0.03 in Rain Rain
3:30 AM 49.1 °F - 48.2 °F 97% 29.77 in 10.0 mi North 6.9 mph - 0.04 in Rain Rain
3:50 AM 48.4 °F - 47.7 °F 97% 29.76 in 7.0 mi NNE 10.4 mph - 0.07 in Rain Rain
4:10 AM 47.3 °F - 46.6 °F 97% 29.76 in 7.0 mi NE 10.4 mph - 0.02 in Rain Rain
4:30 AM 46.8 °F - 46.0 °F 97% 29.76 in 10.0 mi NNE 8.1 mph - 0.03 in Rain Rain
4:50 AM 46.4 °F 42.9 °F 45.7 °F 97% 29.75 in 10.0 mi NE 6.9 mph - 0.04 in Rain Rain
5:30 AM 47.1 °F - 46.4 °F 97% 29.73 in 10.0 mi NE 6.9 mph - N/A Rain Light Rain
5:50 AM 47.5 °F - 46.9 °F 98% 29.73 in 10.0 mi NE 6.9 mph - N/A   Light Drizzle
6:10 AM 48.2 °F - 47.7 °F 98% 29.73 in 10.0 mi ENE 5.8 mph - N/A   Light Drizzle
6:30 AM 48.2 °F - 47.7 °F 98% 29.73 in 10.0 mi NNE 5.8 mph - N/A   Light Drizzle
6:50 AM 48.4 °F - 48.0 °F 99% 29.74 in 10.0 mi NE 5.8 mph - N/A   Overcast
7:10 AM 48.7 °F - 48.2 °F 98% 29.74 in 10.0 mi NE 8.1 mph - N/A   Overcast
7:30 AM 48.9 °F - 48.2 °F 97% 29.74 in 10.0 mi NE 6.9 mph - N/A   Overcast
7:50 AM 48.7 °F - 48.2 °F 98% 29.74 in 10.0 mi NE 5.8 mph - N/A   Overcast
8:10 AM 48.6 °F - 47.8 °F 97% 29.75 in 10.0 mi NE 5.8 mph - N/A   Overcast
8:30 AM 48.6 °F - 47.8 °F 97% 29.76 in 10.0 mi NE 6.9 mph - N/A   Overcast
8:50 AM 48.7 °F - 48.2 °F 98% 29.76 in 7.0 mi NE 8.1 mph - N/A   Overcast
9:10 AM 48.4 °F - 47.7 °F 97% 29.76 in 7.0 mi NE 9.2 mph - N/A   Overcast
9:30 AM 48.2 °F - 47.5 °F 97% 29.77 in 3.0 mi ENE 3.5 mph - N/A   Overcast
9:50 AM 48.2 °F - 47.3 °F 97% 29.76 in 2.0 mi ENE 9.2 mph - N/A   Overcast
10:10 AM 47.8 °F - 47.3 °F 98% 29.76 in 2.0 mi ENE 6.9 mph - N/A   Overcast
10:30 AM 47.7 °F - 47.1 °F 98% 29.77 in 2.5 mi ENE 5.8 mph - N/A   Light Drizzle
10:50 AM 48.0 °F - 47.3 °F 97% 29.79 in 2.0 mi NE 5.8 mph - N/A   Overcast
11:10 AM 48.2 °F - 47.5 °F 97% 29.79 in 5.0 mi ENE 4.6 mph - N/A   Overcast
11:30 AM 48.2 °F - 47.5 °F 97% 29.78 in 7.0 mi NE 4.6 mph - N/A   Overcast
11:50 AM 48.2 °F - 47.5 °F 97% 29.77 in 7.0 mi NE 6.9 mph - N/A   Overcast
12:10 PM 48.2 °F - 47.3 °F 97% 29.77 in 7.0 mi ENE 6.9 mph - N/A   Overcast
12:50 PM 48.2 °F - 47.5 °F 97% 29.77 in 5.0 mi NNE 8.1 mph - N/A   Overcast
1:10 PM 47.8 °F - 47.1 °F 97% 29.76 in 5.0 mi NNE 8.1 mph - N/A   Overcast
1:30 PM 47.3 °F - 46.8 °F 98% 29.76 in 3.0 mi NNE 10.4 mph - N/A   Overcast
1:50 PM 47.7 °F - 47.3 °F 99% 29.75 in 3.0 mi NE 10.4 mph - N/A   Overcast
2:30 PM 48.7 °F - 48.0 °F 97% 29.75 in 10.0 mi NE 6.9 mph - N/A   Overcast
2:50 PM 48.7 °F - 48.0 °F 97% 29.76 in 10.0 mi North 8.1 mph - N/A   Overcast
3:10 PM 48.7 °F - 47.8 °F 97% 29.77 in 10.0 mi NNE 6.9 mph - N/A   Overcast
3:30 PM 47.8 °F - 46.9 °F 97% 29.78 in 10.0 mi NNE 8.1 mph - N/A   Overcast
3:50 PM 47.7 °F - 46.8 °F 97% 29.78 in 10.0 mi NNE 6.9 mph - N/A   Overcast
4:10 PM 48.0 °F - 47.1 °F 97% 29.78 in 10.0 mi NNE 9.2 mph - N/A   Overcast
4:30 PM 47.7 °F - 46.6 °F 96% 29.77 in 10.0 mi NE 8.1 mph - N/A   Overcast
4:50 PM 47.7 °F - 46.6 °F 96% 29.77 in 10.0 mi NE 5.8 mph - N/A   Overcast
5:10 PM 47.8 °F - 46.8 °F 96% 29.77 in 10.0 mi NE 5.8 mph - N/A   Drizzle
5:30 PM 47.8 °F - 46.9 °F 97% 29.76 in 5.0 mi NNE 6.9 mph - N/A   Light Drizzle
5:50 PM 47.7 °F - 46.8 °F 97% 29.76 in 4.0 mi NE 4.6 mph - N/A   Drizzle
6:10 PM 47.5 °F - 46.8 °F 97% 29.74 in 7.0 mi NE 8.1 mph - N/A   Light Drizzle
6:30 PM 47.3 °F - 46.6 °F 97% 29.74 in 5.0 mi ENE 4.6 mph - 0.01 in Rain Light Rain
6:50 PM 47.1 °F - 46.4 °F 97% 29.75 in 3.0 mi NNE 4.6 mph - 0.02 in Rain Heavy Rain
7:10 PM 46.6 °F - 45.9 °F 97% 29.73 in 10.0 mi NE 4.6 mph - N/A Rain Light Rain
7:30 PM 46.4 °F 42.9 °F 45.5 °F 97% 29.72 in 10.0 mi NE 6.9 mph - N/A Rain Light Rain
7:50 PM 45.9 °F 42.9 °F 45.0 °F 97% 29.73 in 10.0 mi NE 5.8 mph - N/A   Overcast
8:10 PM 45.1 °F 40.3 °F 44.2 °F 97% 29.72 in 10.0 mi NE 9.2 mph - N/A   Light Drizzle
8:30 PM 45.1 °F 40.8 °F 44.2 °F 97% 29.73 in 10.0 mi NW 8.1 mph - N/A   Overcast
8:50 PM 45.0 °F 41.2 °F 44.1 °F 97% 29.72 in 5.0 mi NNW 6.9 mph - 0.01 in Rain Light Rain
9:10 PM 44.6 °F 41.4 °F 43.9 °F 97% 29.73 in 5.0 mi NW 5.8 mph - N/A   Drizzle
9:30 PM 43.5 °F 36.7 °F 42.6 °F 97% 29.73 in 5.0 mi West 13.8 mph - 0.07 in Rain Rain
9:50 PM 40.6 °F 33.4 °F 39.7 °F 97% 29.73 in 2.5 mi NW 12.7 mph - 0.14 in Rain Heavy Rain
10:10 PM 39.6 °F 35.4 °F 38.7 °F 97% 29.75 in 2.5 mi WNW 5.8 mph 10.4 mph 0.12 in Rain Heavy Rain
10:50 PM 38.7 °F 32.4 °F 37.9 °F 97% 29.75 in 2.0 mi NW 9.2 mph - 0.39 in Rain Light Rain
11:10 PM 38.3 °F 31.4 °F 37.6 °F 97% 29.75 in 10.0 mi NW 10.4 mph - N/A   Overcast
11:30 PM 38.3 °F 31.4 °F 37.4 °F 97% 29.77 in 7.0 mi WNW 10.4 mph - 0.02 in Rain Light Rain
11:50 PM 38.1 °F 30.7 °F 37.2 °F 97% 29.77 in 10.0 mi NW 11.5 mph - 0.02 in   Light Drizzle